Theta_e
295 295 295 296 295 295 295 296 298 300 300 305 307 308 311 311 309 306 306 307 306 304
294 295 295 295 295 296 296 298 299 300 301 306 308 310 310 309 308 307 307 306 304 304
294 295 295 296 296 296 297 298 299 300 301 304 307 310 307 305 306 306 306 305 305 303
294 295 296 295 296 296 298 299 299 300 300 303 306 309 309 307 304 304 304 302 304 303
294 295 294 295 296 297 298 299 299 300 301 303 307 309 309 308 306 305 305 302 304 304
293 294 294 295 296 298 298 298 299 300 300 304 307 309 309 308 307 306 305 304 305 305
293 294 294 295 296 298 298 298 299 300 300 304 306 309 307 305 306 306 305 305 305 306
293 294 294 294 296 297 298 300 302 299 300 305 305 308 307 307 306 306 305 305 306 306
293 293 293 295 296 297 300 301 301 299 299 303 304 300 300 304 306 305 305 303 302 299
292 292 293 294 295 296 299 300 300 300 301 301 302 297 298 298 305 305 304 302 299 296
291 291 291 292 295 296 299 298 299 299 300 300 300 296 297 296 303 301 300 299 300 298
292 291 290 292 293 296 297 297 297 297 299 299 299 295 296 300 300 298 297 297 297 297
290 291 291 291 291 292 294 292 288 291 294 292 298 294 295 299 297 296 291 292 292 289
289 289 291 292 290 291 290 289 289 289 289 290 291 295 295 297 298 291 289 289 288 288
Wind_Speed
5 3 3 3 3 2 1 3 3 3 5 6 5 4 3 2 3 4 4 6 5 5
4 4 4 4 3 3 2 3 3 2 4 6 5 4 4 2 3 6 3 6 6 6
5 4 4 4 3 3 2 2 4 3 3 5 3 3 3 4 3 5 4 3 8 7
4 4 4 4 4 3 2 2 3 2 2 4 2 2 2 4 4 5 4 5 7 7
5 4 4 4 4 4 3 1 3 3 2 3 3 4 4 4 4 6 7 5 7 7
6 5 5 5 4 4 3 3 3 4 2 2 4 5 4 6 5 4 6 7 9 8
6 6 6 5 4 4 4 3 2 3 4 1 3 3 5 6 5 5 5 6 6 8
6 5 5 5 4 4 3 4 3 3 4 2 1 3 5 7 7 7 6 5 6 5
5 5 5 5 6 5 4 4 3 4 5 3 2 5 8 8 7 6 7 7 5 4
5 5 5 5 4 5 5 4 4 5 4 4 2 5 8 9 6 7 6 7 8 5
5 5 5 5 5 4 3 4 4 5 4 4 2 2 8 9 6 5 6 5 6 8
6 6 5 5 5 4 3 3 4 3 4 4 4 5 8 8 5 6 5 6 7 7
5 5 6 6 5 3 2 3 0 3 2 3 5 6 7 8 4 5 4 3 4 8
4 4 4 4 3 2 3 4 2 4 2 3 3 4 8 10 6 4 3 4 4 3
Wind_Direction
173 172 161 167 154 160 228 261 289 323 320 314 325 352 68 63 90 107 119 95 88 88
182 170 171 165 150 150 227 265 288 335 335 318 345 351 74 72 92 106 71 96 81 95
198 186 174 163 168 177 214 261 299 348 360 321 2 5 64 88 27 97 102 93 109 109
203 203 187 182 173 196 202 244 276 314 352 311 297 143 108 96 113 98 91 106 112 112
195 192 203 207 191 203 201 205 268 285 326 319 278 174 150 125 132 139 132 133 120 122
201 194 222 219 198 200 205 202 259 274 272 328 300 164 154 147 150 145 136 144 144 132
201 199 202 222 198 206 215 217 224 257 267 260 301 213 148 137 140 136 139 136 139 147
196 210 195 211 185 188 215 226 197 269 268 235 262 233 168 148 149 145 139 124 126 140
195 198 205 203 177 179 215 229 219 237 246 255 254 251 189 150 147 149 146 139 112 109
191 198 198 212 193 192 195 212 228 231 212 245 250 241 180 161 138 150 150 147 133 119
182 206 197 186 222 211 201 217 210 227 208 249 175 197 165 153 131 122 122 132 144 143
181 184 198 192 208 218 201 198 214 205 209 232 214 147 161 131 135 132 145 139 140 143
192 184 203 200 210 179 194 179 178 211 243 239 234 166 175 136 124 141 133 114 140 157
184 200 219 197 186 166 206 156 120 252 259 260 228 206 164 161 149 149 147 160 168 178